Flag for Sao Tome and Principe Weather past 2 weeks in São Tomé, Sao Tome and Principe

Now
61 °F

Cool.


Feels Like: 61 °F
Forecast: 73 / 77 °F
Wind: 6 mph from West

Location: Neuchatel

Current Time: Jul 30, 2014 at 4:09:14 AM

Latest Report: Jul 30, 2014 at 3:00 AM


Visibility: N/A

Pressure: 29.82 "Hg

Humidity: 86%

Dew point: 56 °F

Location of São ToméLocation

Historic Weather in São Tomé — Graph

°F

São Tomé temperature yesterday

Maximum temperature yesterday: 67 °F (at 1:00 PM)
Minimum temperature yesterday: 58 °F (at 5:00 AM)
Average temperature yesterday: 62 °F

Past Weeks' High & Low Weather Summary

 TemperatureHumidityPressure
High87 °F (Jul 18, 4:00 PM)98% (Jul 22, 11:00 PM)30.19 "Hg (Jul 22, 11:00 PM)
Low58 °F (Jul 27, 3:00 AM)25% (Jul 17, 4:00 PM)29.78 "Hg (Jul 29, 1:00 PM)
Average67 °F72%29.96 "Hg
* Reported Jul 15 2:00 AM — Jul 30 2:00 AM, São Tomé, Weather by CustomWeather, © 2014

Note: Actual official high and low records may vary slightly from our data, if they occured in-between our weather recording intervals... More about our weather records

Advertising

São Tomé weather history for previous 24 hours

 ConditionsComfort  
Time TempWeatherWind HumidityBarometerVisibility
2:00 AM
Jul 30
61 °FCool.5 mph83%29.83 "HgN/A
1:00 AM61 °FCool.3 mph83%29.85 "HgN/A
12:00 AM61 °FCool.3 mph82%29.84 "HgN/A
11:00 PM
Jul 29
61 °FCool.2 mph85%29.85 "HgN/A
10:00 PM61 °FCool.3 mph85%29.85 "HgN/A
9:00 PM62 °FMild.6 mph89%29.85 "HgN/A
8:00 PM63 °FMild.1 mph78%29.83 "HgN/A
7:00 PM64 °FMild.6 mph87%29.82 "HgN/A
6:00 PM64 °FMild.5 mph88%29.81 "HgN/A
5:00 PM65 °FMild.2 mph80%29.80 "HgN/A
4:00 PM65 °FMild.3 mph79%29.79 "HgN/A
3:00 PM65 °FMild.8 mph76%29.79 "HgN/A
2:00 PM67 °FMild.3 mph70%29.78 "HgN/A
1:00 PM67 °FMild.3 mph74%29.78 "HgN/A
12:00 PM65 °FMild.2 mph77%29.79 "HgN/A
11:00 AM64 °FMild.3 mph79%29.79 "HgN/A
10:00 AM63 °FMild.1 mph79%29.80 "HgN/A
9:00 AM61 °FCool.1 mph85%29.81 "HgN/A
8:00 AM61 °FCool.1 mph87%29.82 "HgN/A
7:00 AM59 °FCool.1 mph92%29.83 "HgN/A
6:00 AM58 °FCool.1 mph96%29.82 "HgN/A
5:00 AM58 °FCool.2 mph98%29.83 "HgN/A
4:00 AM58 °FCool.2 mph97%29.82 "HgN/A
Weather by CustomWeather, © 2014

See weather overviewHow to use our weather pages